{"data":{"norad_id":49122,"epoch":"2026-05-25T04:43:58.695168Z","epoch_age_seconds":68419,"freshness":"FRESH","line1":"1 49122U 21079A   26145.19720712  .00000099  00000+0  31721-4 0  9999","line2":"2 49122  98.2604 219.6704 0002308  72.9683 287.1768 14.57679359250738","mean_motion":14.57679359,"eccentricity":0.0002308,"inclination_deg":98.2604,"raan_deg":219.6704,"arg_perigee_deg":72.9683,"mean_anomaly_deg":287.1768,"bstar":3.1721e-5,"rev_number":25073,"period_min":98.787157210477,"perigee_km":699.04327645188,"apogee_km":702.31085702509,"semimajor_km":7078.8140667385,"source":"CELESTRAK","updated_at":"2026-05-25T13:37:57.087419Z"}}